SBSPSBRP

Guest
Details From SBSP - Sao Paulo Congonhas
To SBRP - LEITE LOPES
Flight Number -
Tags generated
Created
Modified
Stats Distance 162 nm / 300 km
Max Altitude 12,000 ft / 3,658 m
Waypoints 3
Social Downloads 2
Likes 0
Share VATSIM

Download

Looking for another format? Having issues loading an existing format? Contact us
Advertisement - Login to hide

Notes

Basic altitude profile: - Ascent Rate: 10000ft/min - Ascent Speed: 250kts - Cruise Altitude: 180ft - Cruise Speed: 275kts - Descent Rate: 5000ft/min - Descent Speed: 200kts Options: - Use NATs: yes - Use PACOTS: yes - Use low airways: yes - Use high airways: yes

Route

SBSP PSN SBRP

ID Type Via Altitude Latitude Longitude Leg Dist Tot Dist Heading (true) Name
O SBSP APT - 0 ft / 0 m -23.62669˚ -46.65538˚ - 0 nm - Sao Paulo Congonhas
PSN VOR - 12,000 ft / 3,658 m -21.98450˚ -47.34417˚ 105 nm 105 nm 339° / 339° PIRASSUNUNGA VOR-DME
O SBRP APT - 0 ft / 0 m -21.13417˚ -47.77419˚ 56 nm 162 nm 335° / 335° LEITE LOPES

Altitude Profile

Advertisement - Login to hide

Weather


0- 5 10 15 20 25 30 35+ Temperature / ° C

Clouds and Precipitation
Forecast for 2017-12-13 18:00 UTC. Updated 15 minutes ago

Ground ~20,000 ft ~40,000 ft Winds

SBSP

Details ICAO SBSP (CGH)
Name Sao Paulo Congonhas
Region Brazil
Timezone America/Sao_Paulo (UTC-2.0)
Stats Elevation 2,631 ft / 802 m (AMSL)
Location -23.626693° -46.655377°
Runways 2
Magnetic Variation 21.294° W

METAR

SBSP 131300Z 12005KT 9999 SCT019 BKN021 20/14 Q1022

Decode

TAF

TAF SBSP 130900Z 1312/1412 10005KT 9999 SCT015 TX27/1317Z TN16/1409Z BECMG 1313/1315 17008KT FEW045 BECMG 1316/1318 BKN040 BECMG 1321/1323 10004KT CAVOK BECMG 1400/1402 08005KT PROB30 1407/1411 3000 BR BKN005 RMK PGL

Decode

Departure Runways

ID Width Length Bearing (true) Bearing (mag) Surface Threshold Offset Overrun Length
17L 147 ft / 45 m 4,726 ft / 1,441 m 147.28° 168.57° Asphalt 0 ft / 0 m 220 ft / 67 m
17R 147 ft / 45 m 6,406 ft / 1,953 m 147.39° 168.68° Asphalt 413 ft / 126 m 0 ft / 0 m
35L 147 ft / 45 m 6,406 ft / 1,953 m 327.38° 348.67° Asphalt 200 ft / 61 m 0 ft / 0 m
35R 147 ft / 45 m 4,726 ft / 1,441 m 327.28° 348.57° Asphalt 0 ft / 0 m 0 ft / 0 m

SBRP

Details ICAO SBRP (RAO)
Name LEITE LOPES
Region Brazil
Timezone America/Sao_Paulo (UTC-2.0)
Stats Elevation 1,802 ft / 549 m (AMSL)
Location -21.134166° -47.774189°
Runways 1
Magnetic Variation 21.203° W

METAR

SBRP 131300Z 07011KT 9999 FEW040 28/17 Q1017

Decode

TAF

TAF SBRP 130900Z 1312/1412 10005KT CAVOK TX32/1318Z TN22/1409Z BECMG 1313/1315 SCT045 PROB30 1316/1320 TSRA BKN030 FEW045CB BECMG 1320/1322 15005KT CAVOK RMK PGL

Decode

Destination Runways

ID Width Length Bearing (true) Bearing (mag) Surface Threshold Offset Overrun Length
18 115 ft / 35 m 6,918 ft / 2,109 m 163.40° 184.60° Asphalt 657 ft / 200 m 0 ft / 0 m
36 115 ft / 35 m 6,918 ft / 2,109 m 343.40° 4.60° Asphalt 328 ft / 100 m 0 ft / 0 m

Popular Alternatives